METLOCID,DATE_TIME,AVG_PPT,STDDEV_PPT,MIN_PPT,MAX_PPT,N_PPT,N_COMMENTS
HOEM,11/18/94,19.87,0,19.87,19.87,2,0
HOEM,11/19/94,19.87277778,0.01654888,19.82,19.92,72,0
HOEM,11/20/94,19.85361111,0.027542825,19.82,19.92,72,0
HOEM,11/21/94,19.86944444,0.032841441,19.82,19.92,72,0
HOEM,11/22/94,19.90069444,0.035058357,19.87,19.97,72,0
HOEM,11/23/94,19.94430556,0.025165726,19.92,19.97,72,0
HOEM,11/24/94,19.93111111,0.020932861,19.92,19.97,72,0
HOEM,11/25/94,19.93041667,0.041057757,19.87,20.02,72,0
HOEM,11/26/94,19.90819444,0.033031201,19.87,19.97,72,0
HOEM,11/27/94,19.90680556,0.022191636,19.87,19.92,72,0
HOEM,11/28/94,19.90819444,0.025855851,19.87,19.97,72,0
HOEM,11/29/94,19.87625,0.016651989,19.87,19.92,72,0
HOEM,11/30/94,19.87625,0.016651989,19.87,19.92,72,0
HOEM,12/1/94,19.88458333,0.02288597,19.87,19.92,72,0
HOEM,12/2/94,22.33097222,7.59953986,19.87,48.88,72,0
HOEM,12/3/94,48.89208333,0.021159189,48.88,48.93,72,0
HOEM,12/4/94,48.88402778,0.013495928,48.88,48.93,72,0
HOEM,12/5/94,48.89444444,0.022697576,48.88,48.93,72,0
HOEM,12/6/94,48.91041667,0.024462532,48.88,48.93,72,0
HOEM,12/7/94,48.92361111,0.016640825,48.88,48.93,72,0
HOEM,12/8/94,48.91513889,0.02276599,48.88,48.93,72,0
HOEM,12/9/94,48.92569444,0.013923978,48.88,48.93,72,0
HOEM,12/10/94,48.92777778,0.010101209,48.88,48.93,72,0
HOEM,12/11/94,48.93,0,48.93,48.93,72,0
HOEM,12/12/94,48.93,0,48.93,48.93,72,0
HOEM,12/13/94,48.92388889,0.02045645,48.88,48.97,72,0
HOEM,12/14/94,48.90694444,0.024986694,48.88,48.93,72,0
HOEM,12/15/94,48.91888889,0.020932861,48.88,48.93,72,0
HOEM,12/16/94,48.93,0,48.93,48.93,72,0
HOEM,12/17/94,48.93,0,48.93,48.93,72,0
HOEM,12/18/94,48.93,0,48.93,48.93,72,0
HOEM,12/19/94,48.93,0,48.93,48.93,72,0
HOEM,12/20/94,48.93,0,48.93,48.93,72,0
HOEM,12/21/94,48.89486111,0.022641919,48.88,48.93,72,0
HOEM,12/22/94,48.95194444,0.069050683,48.88,49.07,72,0
HOEM,12/23/94,49.07208333,0.010061431,49.07,49.12,72,0
HOEM,12/24/94,49.08458333,0.02288597,49.07,49.12,72,0
HOEM,12/25/94,49.0825,0.021802571,49.07,49.12,72,0
HOEM,12/26/94,49.10680556,0.022191636,49.07,49.12,72,0
HOEM,12/27/94,49.12833333,0.018764666,49.12,49.17,72,0
HOEM,12/28/94,49.17138889,0.07217556,49.12,49.32,72,0
HOEM,12/29/94,49.32,0,49.32,49.32,72,0
HOEM,12/30/94,49.30388889,0.027298845,49.27,49.37,72,0
HOEM,12/31/94,49.28875,0.024376016,49.27,49.32,72,0
HOEM,1/1/95,49.31097222,0.019367442,49.27,49.32,72,0
HOEM,1/2/95,49.30402778,0.023476672,49.27,49.32,72,0
HOEM,1/3/95,49.27,0,49.27,49.27,72,0
HOEM,1/4/95,49.28875,0.024376016,49.27,49.32,72,0
HOEM,1/5/95,49.295,0.025175441,49.27,49.32,72,0
HOEM,1/6/95,49.28666667,0.023735633,49.27,49.32,72,0
HOEM,1/7/95,49.30472222,0.023193747,49.27,49.32,72,0
HOEM,1/8/95,49.32,0,49.32,49.32,72,0
HOEM,1/9/95,49.32,0,49.32,49.32,72,0
HOEM,1/10/95,49.32611111,0.016320346,49.32,49.37,72,0
HOEM,1/11/95,49.32611111,0.016320346,49.32,49.37,72,0
HOEM,1/12/95,49.32,0,49.32,49.32,72,0
HOEM,1/13/95,49.32402778,0.013495928,49.32,49.37,72,0
HOEM,1/14/95,49.3525,0.023898259,49.32,49.37,72,0
HOEM,1/15/95,49.36097222,0.022714376,49.32,49.41,72,0
HOEM,1/16/95,49.36152778,0.018739107,49.32,49.37,72,0
HOEM,1/17/95,49.36361111,0.016640825,49.32,49.37,72,0
HOEM,1/18/95,49.36,0.019858655,49.32,49.37,72,0
HOEM,1/19/95,49.35263889,0.023971406,49.32,49.37,72,0
HOEM,1/20/95,49.36652778,0.024789805,49.32,49.41,72,0
HOEM,1/21/95,49.37152778,0.028761267,49.32,49.41,72,0
HOEM,1/22/95,49.37859155,0.025817811,49.32,49.41,71,0
HOEM,1/23/95,49.36855072,0.023280601,49.32,49.41,69,0
HOEM,1/24/95,49.35694444,0.025211158,49.32,49.41,72,0
HOEM,1/25/95,49.35777778,0.032726878,49.32,49.41,72,0
HOEM,1/26/95,49.45847222,0.142844934,49.32,49.66,72,0
HOEM,1/27/95,49.63291667,0.025087874,49.61,49.66,72,0
HOEM,1/28/95,49.61625,0.016651989,49.61,49.66,72,0
HOEM,1/29/95,49.63847222,0.02493144,49.61,49.66,72,0
HOEM,1/30/95,49.64333333,0.023735633,49.61,49.66,72,0
HOEM,1/31/95,49.63708333,0.025087874,49.61,49.66,72,0
HOEM,2/1/95,49.77916667,0.065515292,49.66,49.85,72,0
HOEM,2/2/95,49.82972222,0.027525774,49.76,49.85,72,0
HOEM,2/3/95,49.78777778,0.02326953,49.76,49.85,72,0
HOEM,2/4/95,49.77166667,0.018308776,49.76,49.8,72,0
HOEM,2/5/95,49.75694444,0.030839836,49.71,49.85,72,0
HOEM,2/6/95,49.75763889,0.092332727,49.61,49.95,72,0
HOEM,2/7/95,49.77166667,0.018308776,49.76,49.8,72,0
HOEM,2/8/95,49.77166667,0.018308776,49.76,49.8,72,0
HOEM,2/9/95,49.76666667,0.015011733,49.76,49.8,72,0
HOEM,2/10/95,49.76,0,49.76,49.76,72,0
HOEM,2/11/95,49.75694444,0.02107257,49.71,49.8,72,0
HOEM,2/12/95,49.75777778,0.010101209,49.71,49.76,72,0
HOEM,2/13/95,49.76166667,0.008049145,49.76,49.8,72,0
HOEM,2/14/95,49.75361111,0.016640825,49.71,49.76,72,0
HOEM,2/15/95,49.80208333,0.032541956,49.76,49.85,72,0
HOEM,2/16/95,49.82097222,0.024732924,49.8,49.85,72,0
HOEM,2/17/95,49.80638889,0.016640825,49.8,49.85,72,0
HOEM,2/18/95,49.81680556,0.02366589,49.8,49.85,72,0
HOEM,2/19/95,49.83069444,0.024398475,49.8,49.85,72,0
HOEM,2/20/95,49.85152778,0.050897846,49.8,49.95,72,0
HOEM,2/21/95,49.91180556,0.021383579,49.9,49.95,72,0
HOEM,2/22/95,49.90277778,0.011533445,49.9,49.95,72,0
HOEM,2/23/95,49.89652778,0.012799617,49.85,49.9,72,0
HOEM,2/24/95,49.87777778,0.040148395,49.85,49.95,72,0
HOEM,2/25/95,49.97847222,0.02493144,49.95,50,72,0
HOEM,2/26/95,49.99652778,0.034930907,49.95,50.1,72,0
HOEM,2/27/95,51.93902778,1.048095738,50.1,53.22,72,0
HOEM,2/28/95,53.45125,0.092856659,53.22,53.52,72,0
HOEM,3/1/95,53.50597222,0.022496305,53.47,53.52,72,0
HOEM,3/2/95,53.44569444,0.025165726,53.42,53.47,72,0
HOEM,3/3/95,53.48555556,0.031928127,53.42,53.52,72,0
HOEM,3/4/95,53.44986111,0.024694931,53.42,53.47,72,0
HOEM,3/5/95,53.44361111,0.031368126,53.42,53.52,72,0
HOEM,3/6/95,53.46097222,0.041389926,53.37,53.56,72,0
HOEM,3/7/95,53.34333333,0.292786516,52.64,53.61,72,0
HOEM,3/8/95,53.54944444,0.031928127,53.52,53.61,72,0
HOEM,3/9/95,53.72597222,0.071614377,53.61,53.81,72,0
HOEM,3/10/95,53.835,0.025175441,53.81,53.86,72,0
HOEM,3/11/95,53.83847222,0.02493144,53.81,53.86,72,0
HOEM,3/12/95,53.86,0,53.86,53.86,72,0
HOEM,3/13/95,53.83916667,0.024823319,53.81,53.86,72,0
HOEM,3/14/95,53.85236111,0.018114896,53.81,53.86,72,0
HOEM,3/15/95,53.83847222,0.02493144,53.81,53.86,72,0
HOEM,3/16/95,53.96180556,0.04618781,53.86,54.05,72,0
HOEM,3/17/95,53.97305556,0.08792825,53.81,54.25,72,0
HOEM,3/18/95,54.33763889,0.120216859,54,54.39,72,0
HOEM,3/19/95,54.38833333,0.008049145,54.35,54.39,72,0
HOEM,3/20/95,54.39,0,54.39,54.39,72,0
HOEM,3/21/95,54.35888889,0.016746289,54.35,54.39,72,0
HOEM,3/22/95,54.38277778,0.015493954,54.35,54.39,72,0
HOEM,3/23/95,54.39,0,54.39,54.39,72,0
HOEM,3/24/95,54.39,0,54.39,54.39,72,0
HOEM,3/25/95,54.39652778,0.016628477,54.39,54.44,72,0
HOEM,3/26/95,54.39,0,54.39,54.39,72,0
HOEM,3/27/95,54.39,0,54.39,54.39,72,0
HOEM,3/28/95,54.39,0,54.39,54.39,72,0
HOEM,3/29/95,54.40625,0.023342973,54.39,54.44,72,0
HOEM,3/30/95,54.4175,0.024709581,54.39,54.44,72,0
HOEM,3/31/95,54.48583333,0.035355339,54.44,54.54,72,0
HOEM,4/1/95,54.44,0,54.44,54.44,72,0
HOEM,4/2/95,54.04222222,0.230175819,53.91,54.54,72,0
HOEM,4/3/95,53.86263889,0.011004872,53.86,53.91,72,0
HOEM,4/4/95,53.87180556,0.021383579,53.86,53.91,72,0
HOEM,4/5/95,53.87722222,0.023808048,53.86,53.91,72,0
HOEM,4/6/95,53.90097222,0.019367442,53.86,53.91,72,0
HOEM,4/7/95,53.91,0,53.91,53.91,72,0
HOEM,4/8/95,53.89527778,0.022826487,53.86,53.91,72,0
HOEM,4/9/95,53.88527778,0.179357007,53.56,54.25,72,0
HOEM,4/10/95,53.63472222,0.052914287,53.52,53.76,72,0
HOEM,4/11/95,53.91277778,0.23537936,53.56,54.15,72,0
HOEM,4/12/95,54.11180556,0.021383579,54.1,54.15,72,0
HOEM,4/13/95,54.13041667,0.152078904,53.56,54.49,72,0
HOEM,4/14/95,53.82458333,0.374786089,53.56,54.54,72,0
HOEM,4/15/95,53.54166667,0.020070299,53.52,53.56,72,0
HOEM,4/16/95,53.52680556,0.020475089,53.47,53.56,72,0
HOEM,4/17/95,53.44625,0.026132787,53.42,53.51,72,0
HOEM,4/18/95,53.45527778,0.03377524,53.42,53.52,72,0
HOEM,4/19/95,53.42694444,0.025599235,53.37,53.47,72,0
HOEM,4/20/95,54.50555556,0.850149761,53.37,55.96,72,0
HOEM,4/21/95,55.82458333,0.02288597,55.81,55.86,72,0
HOEM,4/22/95,56.32222222,0.180314453,55.86,56.45,72,0
HOEM,4/23/95,56.45,0,56.45,56.45,72,0
HOEM,4/24/95,56.45,0,56.45,56.45,72,0
HOEM,4/25/95,56.42555556,0.025057055,56.4,56.45,72,0
HOEM,4/26/95,56.07333333,0.436054655,55.42,56.64,72,0
HOEM,4/27/95,55.82041667,0.292230073,55.47,56.52,72,0
HOEM,4/28/95,55.58597222,0.027097098,55.52,55.62,72,0
HOEM,4/29/95,55.57805556,0.023294737,55.52,55.62,72,0
HOEM,4/30/95,55.80902778,0.297360026,55.57,56.54,72,0
HOEM,5/1/95,56.14583333,0.206416439,55.42,56.64,72,0
HOEM,5/2/95,56.1,0,56.1,56.1,72,0
HOEM,5/3/95,56.1,0,56.1,56.1,72,0
HOEM,5/4/95,56.1,0,56.1,56.1,72,0
HOEM,5/5/95,55.87944444,0.345085778,55.18,56.25,72,0
HOEM,5/6/95,56.74694444,0.489128685,55.73,57.32,72,0
HOEM,5/7/95,57.04305556,0.435575187,55.81,57.62,72,0
HOEM,5/8/95,56.66041667,0.319420415,55.62,56.88,72,0
HOEM,5/9/95,56.74,0,56.74,56.74,72,0
HOEM,5/10/95,56.715,0.025175441,56.69,56.74,72,0
HOEM,5/11/95,56.72402778,0.023476672,56.69,56.74,72,0
HOEM,5/12/95,56.74958333,0.075590399,56.69,57.18,72,0
HOEM,5/13/95,56.63680556,0.339078396,55.66,57.23,72,0
HOEM,5/14/95,56.33361111,0.326553947,55.37,56.64,72,0
HOEM,5/15/95,56.44541667,0.023968142,56.4,56.59,72,0
HOEM,5/16/95,56.48277778,0.015493954,56.45,56.49,72,0
HOEM,5/17/95,56.44291667,0.02531144,56.4,56.49,72,0
HOEM,5/18/95,56.42583333,0.033640603,56.35,56.49,72,0
HOEM,5/19/95,56.96958333,0.224106599,56.4,57.13,72,0
HOEM,5/20/95,58.87263889,1.345003265,55.71,61.87,72,0
HOEM,5/21/95,59.28,0,59.28,59.28,72,0
HOEM,5/22/95,59.30222222,0.025019554,59.28,59.33,72,0
HOEM,5/23/95,59.33,0,59.33,59.33,72,0
HOEM,5/24/95,59.31736111,0.021753618,59.28,59.33,72,0
HOEM,5/25/95,58.36097222,0.836959891,57.23,59.42,72,0
HOEM,5/26/95,58.97402778,0.14178599,57.8,59.03,72,0
HOEM,5/27/95,58.99694444,0.023595111,58.98,59.03,72,0
HOEM,5/28/95,59.06569444,0.060393694,58.98,59.13,72,0
HOEM,5/29/95,59.13972222,0.01992749,59.13,59.18,72,0
HOEM,5/30/95,59.13694444,0.017412873,59.13,59.18,72,0
HOEM,5/31/95,59.13,0,59.13,59.13,72,0
HOEM,6/1/95,59.13,0,59.13,59.13,72,0
HOEM,6/2/95,59.13,0,59.13,59.13,72,0
HOEM,6/3/95,59.17027778,0.0554361,59.13,59.28,72,0
HOEM,6/4/95,59.23958333,0.04985719,59.18,59.33,72,0
HOEM,6/5/95,59.23638889,0.040500584,59.18,59.37,72,0
HOEM,6/6/95,59.22861111,0.00827444,59.18,59.23,72,0
HOEM,6/7/95,59.16402778,0.023476672,59.13,59.18,72,0
HOEM,6/8/95,59.13,0,59.13,59.13,72,0
HOEM,6/9/95,59.13,0,59.13,59.13,72,0
HOEM,6/10/95,58.71708333,1.149757399,56.79,60.64,72,0
HOEM,6/11/95,59.16694444,0.171502383,57.84,59.28,72,0
HOEM,6/12/95,59.23,0,59.23,59.23,72,0
HOEM,6/13/95,58.35875,1.431674817,56.3,61.18,72,0
HOEM,6/14/95,60.50791667,0.802287114,56.92,62.11,72,0
HOEM,6/15/95,60.57958333,0.049174524,60.5,60.69,72,0
HOEM,6/16/95,58.66958333,1.391678931,57.47,60.64,72,0
HOEM,6/17/95,57.44361111,0.02513656,57.42,57.47,72,0
HOEM,6/18/95,57.39291667,0.025087874,57.37,57.42,72,0
HOEM,6/19/95,57.53041667,0.348066844,57.32,58.69,72,0
HOEM,6/20/95,58.11805556,0.070364021,58.01,58.25,72,0
HOEM,6/21/95,58.07013889,0.114221098,57.96,58.25,72,0
HOEM,6/22/95,58.74680556,0.675658941,57.67,60.2,72,0
HOEM,6/23/95,58.63236111,0.069535543,58.5,58.74,72,0
HOEM,6/24/95,58.76319444,0.426019329,57.57,59.18,72,0
HOEM,6/25/95,59.39736111,1.050078459,56.74,62.01,72,0
HOEM,6/26/95,60.15319444,0.555641556,58.89,61.77,72,0
HOEM,6/27/95,58.98527778,0.858678927,58.35,60.35,72,0
HOEM,6/28/95,58.13986111,0.582122133,56.88,58.98,72,0
HOEM,6/29/95,58.77152778,0.502497032,57.71,60.4,72,0
HOEM,6/30/95,57.90069444,1.074174857,56.49,60.38,72,0
HOEM,7/1/95,59.90916667,0.869312097,56.94,61.96,72,0
HOEM,7/2/95,60.08875,0.039856698,60.06,60.2,72,0
HOEM,7/3/95,60.08055556,0.037487609,60.06,60.2,72,0
HOEM,7/4/95,59.87236111,0.283854223,59.52,60.2,72,0
HOEM,7/5/95,59.58125,0.072964153,59.42,59.67,72,0
HOEM,7/6/95,59.57486111,0.014916958,59.57,59.62,72,0
HOEM,7/7/95,59.5825,0.021802571,59.57,59.62,72,0
HOEM,7/8/95,59.54986111,0.024694931,59.52,59.57,72,0
HOEM,7/9/95,59.52833333,0.018764666,59.52,59.57,72,0
HOEM,7/10/95,59.52,0,59.52,59.52,72,0
HOEM,7/11/95,59.55888889,0.020932861,59.52,59.57,72,0
HOEM,7/12/95,59.55125,0.024376016,59.52,59.57,72,0
HOEM,7/13/95,59.62069444,0.010254012,59.57,59.67,72,0
HOEM,7/14/95,58.95777778,0.187054426,58.84,59.72,72,0
HOEM,7/15/95,58.79902778,0.019367442,58.79,58.84,72,0
HOEM,7/16/95,58.78583333,0.013916248,58.74,58.79,72,0
HOEM,7/17/95,58.79416667,0.020122862,58.74,58.84,72,0
HOEM,7/18/95,58.69819444,0.334888362,57.62,59.23,72,0
HOEM,7/19/95,59.10166667,0.113596766,58.5,59.13,72,0
HOEM,7/20/95,59.09388889,0.022552321,59.08,59.13,72,0
HOEM,7/21/95,59.11611111,0.039559389,59.08,59.23,72,0
HOEM,7/22/95,59.10708333,0.045915952,59.08,59.23,72,0
HOEM,7/23/95,59.08208333,0.010061431,59.08,59.13,72,0
HOEM,7/24/95,59.11263889,0.040385224,59.08,59.18,72,0
HOEM,7/25/95,59.08069444,0.005892557,59.08,59.13,72,0
HOEM,7/26/95,59.1175,0.044206621,59.08,59.23,72,0
HOEM,7/27/95,59.08,0,59.08,59.08,72,0
HOEM,7/28/95,59.10708333,0.038398852,59.08,59.18,72,0
HOEM,7/29/95,59.13625,0.044355716,59.08,59.23,72,0
HOEM,7/30/95,59.09597222,0.023476672,59.08,59.13,72,0
HOEM,7/31/95,59.14041667,0.02044832,59.13,59.18,72,0
HOEM,8/1/95,59.12444444,0.015823755,59.08,59.13,72,0
HOEM,8/2/95,59.08208333,0.010061431,59.08,59.13,72,0
HOEM,8/3/95,59.09666667,0.097619555,59.08,59.67,72,0
HOEM,8/4/95,59.43388889,0.068619292,59.37,59.72,72,0
HOEM,8/5/95,58.66388889,1.143298361,56.4,60.25,72,0
HOEM,8/6/95,57.26847222,0.947443796,55.96,59.62,72,0
HOEM,8/7/95,56.85930556,0.099269535,56.69,57.13,72,0
HOEM,8/8/95,58.13791667,1.038533551,56.69,58.89,72,0
HOEM,8/9/95,60.09944444,0.977598219,58.84,60.99,72,0
HOEM,8/10/95,60.87472222,0.024665207,60.84,60.94,72,0
HOEM,8/11/95,58.55847222,2.015873389,56.15,60.89,72,0
HOEM,8/12/95,56.85569444,0.032057448,56.79,56.93,72,0
HOEM,8/13/95,56.84513889,0.017761571,56.79,56.88,72,0
HOEM,8/14/95,55.35958333,1.22200878,54.25,57.28,72,0
HOEM,8/15/95,54.50958333,0.197522953,54.35,55.13,72,0
HOEM,8/16/95,54.29263889,0.280236284,53.81,54.79,72,0
HOEM,8/17/95,54.52152778,0.034218014,54.4,54.54,72,0
HOEM,8/18/95,54.51569444,0.025165726,54.49,54.54,72,0
HOEM,8/19/95,54.48652778,0.049877589,54.44,54.59,72,0
HOEM,8/20/95,54.5775,0.021802571,54.54,54.59,72,0
HOEM,8/21/95,54.57402778,0.027611986,54.49,54.59,72,0
HOEM,8/22/95,53.93513889,0.34260803,53.47,54.54,72,0
HOEM,8/23/95,54.49277778,0.04431711,54.44,54.54,72,0
HOEM,8/24/95,54.49291667,0.035303014,54.44,54.54,72,0
HOEM,8/25/95,54.54,0,54.54,54.54,72,0
HOEM,8/26/95,54.53166667,0.018764666,54.49,54.54,72,0
HOEM,8/27/95,56.97416667,2.977046816,54.49,60.79,72,0
HOEM,8/28/95,60.75736111,0.023971406,60.74,60.79,72,0
HOEM,8/29/95,60.76430556,0.025165726,60.74,60.79,72,0
HOEM,8/30/95,60.78236111,0.018114896,60.74,60.79,72,0
HOEM,8/31/95,60.74555556,0.015823755,60.74,60.79,72,0
HOEM,9/1/95,60.79,0,60.79,60.79,72,0
HOEM,9/2/95,60.79,0,60.79,60.79,72,0
HOEM,9/3/95,60.79,0,60.79,60.79,72,0
HOEM,9/4/95,60.76361111,0.02513656,60.74,60.79,72,0
HOEM,9/5/95,60.74,0,60.74,60.74,72,0
HOEM,9/6/95,60.72194444,0.02418467,60.69,60.74,72,0
HOEM,9/7/95,60.72055556,0.024545955,60.69,60.74,72,0
HOEM,9/8/95,60.78166667,0.018764666,60.74,60.79,72,0
HOEM,9/9/95,60.77263889,0.023971406,60.74,60.79,72,0
HOEM,9/10/95,60.78652778,0.012799617,60.74,60.79,72,0
HOEM,9/11/95,60.75666667,0.023735633,60.74,60.79,72,0
HOEM,9/12/95,60.74,0,60.74,60.74,72,0
HOEM,9/13/95,60.77472222,0.023193747,60.74,60.79,72,0
HOEM,9/14/95,59.88958333,2.062664377,54.93,62.21,72,0
HOEM,9/15/95,55.46847222,0.465053865,54.79,56.35,72,0
HOEM,9/16/95,59.93916667,1.918213481,55.08,60.74,72,0
HOEM,9/17/95,56.18138889,2.151455652,55.08,60.74,72,0
HOEM,9/18/95,54.90319444,0.330670792,54.54,55.47,72,0
HOEM,9/19/95,54.57680556,0.02782371,54.54,54.64,72,0
HOEM,9/20/95,57.41458333,2.119359415,54.54,59.23,72,0
HOEM,9/21/95,59.21263889,0.033734383,59.18,59.28,72,0
HOEM,9/22/95,59.29472222,0.040731765,59.23,59.37,72,0
HOEM,9/23/95,59.27680556,0.033894052,59.23,59.33,72,0
HOEM,9/24/95,59.23694444,0.017412873,59.23,59.28,72,0
HOEM,9/25/95,59.22791667,0.010061431,59.18,59.23,72,0
HOEM,9/26/95,59.22791667,0.010061431,59.18,59.23,72,0
HOEM,9/27/95,59.23625,0.016651989,59.23,59.28,72,0
HOEM,9/28/95,59.30666667,0.043540494,59.23,59.42,72,0
HOEM,9/29/95,59.28402778,0.013495928,59.28,59.33,72,0
HOEM,9/30/95,59.28541667,0.01546805,59.28,59.33,72,0
HOEM,10/1/95,55.05041667,1.97321532,53.56,59.23,72,0
HOEM,10/2/95,59.25347222,0.0342797,59.23,59.33,72,0
HOEM,10/3/95,59.26180556,0.035655882,59.23,59.33,72,0
HOEM,10/4/95,59.40541667,0.054796358,59.28,59.52,72,0
HOEM,10/5/95,59.40027778,0.027525774,59.33,59.42,72,0
HOEM,10/6/95,59.38555556,0.034555075,59.33,59.47,72,0
HOEM,10/7/95,59.3875,0.027971313,59.37,59.47,72,0
HOEM,10/8/95,59.41347222,0.039580893,59.33,59.47,72,0
HOEM,10/9/95,59.88861111,0.24440964,59.47,60.11,72,0
HOEM,10/10/95,59.99194444,0.02418467,59.96,60.01,72,0
HOEM,10/11/95,59.97875,0.024376016,59.96,60.01,72,0
HOEM,10/12/95,59.99958333,0.028994293,59.96,60.06,72,0
HOEM,10/13/95,59.985,0.025175441,59.96,60.01,72,0
HOEM,10/14/95,59.98083333,0.024823319,59.96,60.01,72,0
HOEM,10/15/95,60.05652778,0.046213214,59.96,60.11,72,0
HOEM,10/16/95,60.02944444,0.024545955,60.01,60.06,72,0
HOEM,10/17/95,60.04888889,0.020932861,60.01,60.06,72,0
HOEM,10/18/95,60.05444444,0.015823755,60.01,60.06,72,0
HOEM,10/19/95,60.03847222,0.02493144,60.01,60.06,72,0
HOEM,10/20/95,60.34638889,0.159199632,60.06,60.6,72,0
HOEM,10/21/95,60.53027778,0.041144617,60.5,60.6,72,0
HOEM,10/22/95,60.4875,0.029964768,60.45,60.55,72,0
HOEM,10/23/95,60.48611111,0.030514626,60.45,60.55,72,0
HOEM,10/24/95,60.47291667,0.025087874,60.45,60.5,72,0
HOEM,10/25/95,60.46875,0.024376016,60.45,60.5,72,0
HOEM,10/26/95,60.4625,0.021802571,60.45,60.5,72,0
HOEM,10/27/95,60.46041667,0.028994293,60.4,60.5,72,0
HOEM,10/28/95,60.45833333,0.031399291,60.4,60.5,72,0
HOEM,10/29/95,60.46875,0.024376016,60.45,60.5,72,0
HOEM,10/30/95,60.47638889,0.02513656,60.45,60.5,72,0
HOEM,10/31/95,60.47916667,0.024823319,60.45,60.5,72,0
HOEM,11/1/95,56.41222222,1.635315555,55.47,60.5,72,0
HOEM,11/2/95,55.63416667,0.114298226,55.32,55.91,72,0
HOEM,11/3/95,55.8075,0.65293433,55.62,58.2,72,0
HOEM,11/4/95,57.31277778,1.384599624,55.22,58.4,72,0
HOEM,11/5/95,58.43833333,0.060931733,58.35,58.54,72,0
HOEM,11/6/95,58.39847222,0.065856432,58.3,58.5,72,0
HOEM,11/7/95,58.37708333,0.038398852,58.3,58.45,72,0
HOEM,11/8/95,58.39916667,0.062860229,58.3,58.5,72,0
HOEM,11/9/95,58.45263889,0.01618494,58.4,58.5,72,0
HOEM,11/10/95,58.43875,0.041109181,58.4,58.5,72,0
HOEM,11/11/95,57.935,1.086331208,55.71,58.74,72,0
HOEM,11/12/95,56.05736111,0.38386835,55.62,56.69,72,0
HOEM,11/13/95,56.33333333,0.034600334,56.25,56.4,72,0
HOEM,11/14/95,56.37222222,0.028935198,56.3,56.4,72,0
HOEM,11/15/95,56.36458333,0.02288597,56.35,56.4,72,0
HOEM,11/16/95,56.39069444,0.039265309,56.35,56.45,72,0
HOEM,11/17/95,56.40180556,0.035695362,56.35,56.49,72,0
HOEM,11/18/95,56.92597222,0.996385948,56.3,58.74,72,0
HOEM,11/19/95,58.68930556,0.053400596,58.59,58.79,72,0
HOEM,11/20/95,58.66236111,0.049943434,58.54,58.74,72,0
HOEM,11/21/95,58.6775,0.021802571,58.64,58.69,72,0
HOEM,11/22/95,58.91638889,0.171983504,58.64,59.08,72,0
HOEM,11/23/95,59.01263889,0.040732485,58.94,59.08,72,0
HOEM,11/24/95,59.03375,0.027753315,58.98,59.08,72,0
HOEM,11/25/95,59.03347222,0.041389926,58.94,59.08,72,0
HOEM,11/26/95,57.89763889,1.295195339,55.86,59.03,72,0
HOEM,11/27/95,58.66013889,0.03213059,58.59,58.69,72,0
HOEM,11/28/95,142.6807595,116.1844437,0,293.9,79,0
HOEM,11/29/95,293.6458333,0.154862701,293.5,293.9,96,0
HOEM,11/30/95,293.5541667,0.219048981,293,293.7,96,0
HOEM,12/1/95,293.7,0.193581208,293.2,293.9,96,0
HOEM,12/2/95,293.9,0.158943883,293.7,294.2,96,0
HOEM,12/3/95,293.7208333,0.134490592,293.5,293.9,96,0
HOEM,12/4/95,293.6583333,0.141916704,293.5,293.9,96,0
HOEM,12/5/95,293.6875,0.184248116,293.5,294.2,96,0
HOEM,12/6/95,293.7520833,0.207734226,293.5,294.2,96,0
HOEM,12/7/95,293.5895833,0.099978068,293.5,293.7,96,0
HOEM,12/8/95,293.8083333,0.219888329,293.5,294.2,96,0
HOEM,12/9/95,294.090625,0.145151917,293.9,294.2,96,0
HOEM,12/10/95,294.1416667,0.187878273,293.9,294.4,96,0
HOEM,12/11/95,294.0125,0.145999279,293.9,294.2,96,0
HOEM,12/12/95,293.975,0.130585725,293.9,294.2,96,0
HOEM,12/13/95,294.025,0.148678388,293.9,294.2,96,0
HOEM,12/14/95,294.1,0.142163731,293.9,294.2,96,0
HOEM,12/15/95,294.25,0.08705715,294.2,294.4,96,0
HOEM,12/16/95,294.0541667,0.228457835,293.7,294.4,96,0
HOEM,12/17/95,294.1833333,0.09477582,293.9,294.4,96,0
HOEM,12/18/95,294.3958333,0.23120584,294.2,294.9,96,0
HOEM,12/19/95,294.4791667,0.217118288,294.2,294.7,96,0
HOEM,12/20/95,294.6791667,0.228457835,294.4,295.2,96,0
HOEM,12/21/95,294.9041667,0.261942809,294.4,295.2,96,0
HOEM,12/22/95,294.8125,0.127527087,294.7,295.2,96,0
HOEM,12/23/95,295.0666667,0.227881163,294.7,295.4,96,0
HOEM,12/24/95,295.2083333,0.198768136,294.9,295.4,96,0
HOEM,12/25/95,294.8375,0.122474487,294.7,295.2,96,0
HOEM,12/26/95,294.7166667,0.168377187,294.4,294.9,96,0
HOEM,12/27/95,294.8958333,0.212214721,294.7,295.2,96,0
HOEM,12/28/95,294.8875,0.184248116,294.7,295.2,96,0
HOEM,12/29/95,294.7958333,0.23301984,294.4,295.2,96,0
HOEM,12/30/95,294.6333333,0.180447786,294.4,294.9,96,0
HOEM,12/31/95,295.0916667,0.215047934,294.7,295.4,96,0
HOEM,1/1/96,294.8,0.150787407,294.7,295.2,96,0
HOEM,1/2/96,294.7833333,0.099118926,294.7,294.9,96,0
HOEM,1/3/96,294.8458333,0.192445025,294.7,295.3,96,0
HOEM,1/4/96,294.9916667,0.190106157,294.7,295.2,96,0
HOEM,1/5/96,294.95,0.112390297,294.9,295.2,96,0
HOEM,1/6/96,295.1208333,0.185765368,294.9,295.4,96,0
HOEM,1/7/96,295.3,0.100524938,295.2,295.4,96,0
HOEM,1/8/96,295.375,0.066490997,295.2,295.4,96,0
HOEM,1/9/96,295.3791667,0.057886762,295.2,295.4,96,0
HOEM,1/10/96,295.5625,0.218728382,295.2,295.9,96,0
HOEM,1/11/96,295.8083333,0.100175285,295.7,295.9,96,0
HOEM,1/12/96,295.4375,0.099736495,295.4,295.7,96,0
HOEM,1/13/96,295.4083333,0.040175056,295.4,295.6,96,0
HOEM,1/14/96,295.5666667,0.175719074,295.4,295.9,96,0
HOEM,1/15/96,295.5041667,0.170396854,295.4,295.9,96,0
HOEM,1/16/96,295.6541667,0.181175499,295.4,295.9,96,0
HOEM,1/17/96,295.7083333,0.273636973,295.4,296.1,96,0
HOEM,1/18/96,295.7791667,0.169156836,295.4,296.1,96,0
HOEM,1/19/96,295.9166667,0.229721418,295.4,296.1,96,0
HOEM,1/20/96,295.9583333,0.158722974,295.7,296.1,96,0
HOEM,1/21/96,296,0.100524938,295.9,296.1,96,0
HOEM,1/22/96,295.9958333,0.191347942,295.7,296.4,96,0
HOEM,1/23/96,296.15,0.247938872,295.7,296.6,96,0
HOEM,1/24/96,296.1311688,0.212911979,295.9,296.6,77,0
HOEM,1/25/96,296.4458333,0.196772199,296.1,296.9,96,0
HOEM,1/26/96,296.425,0.20570802,296.1,296.6,96,0
HOEM,1/27/96,296.4083333,0.198768136,296.1,296.9,96,0
HOEM,1/28/96,296.5875,0.143086282,296.4,296.9,96,0
HOEM,1/29/96,283.0833333,4.108391071,280.9,296.6,96,0
HOEM,1/30/96,282.1583333,1.197160383,281.2,285.4,96,0
HOEM,1/31/96,281.8875,0.494442802,280.5,282.5,96,0
HOEM,2/1/96,281.9791667,0.132916014,281.7,282.2,96,0
HOEM,2/2/96,281.9041667,0.152119528,281.7,282.2,96,0
HOEM,2/3/96,281.8541667,0.161516932,281.7,282.2,96,0
HOEM,2/4/96,281.9,0.169208685,281.5,282.2,96,0
HOEM,2/5/96,281.9125,0.137074701,281.7,282,96,0
HOEM,2/6/96,281.9,0.142163731,281.7,282,96,0
HOEM,2/7/96,281.8625,0.173660285,281.7,282.2,96,0
HOEM,2/8/96,281.8208333,0.158888684,281.5,282,96,0
HOEM,2/9/96,281.7833333,0.14985373,281.7,282.2,96,0
HOEM,2/10/96,281.8166667,0.20035057,281.5,282.2,96,0
HOEM,2/11/96,281.875,0.174717818,281.5,282.2,96,0
HOEM,2/12/96,281.7125,0.124181531,281.5,282,96,0
HOEM,2/13/96,281.7,0.112390297,281.5,282,96,0
HOEM,2/14/96,281.7666667,0.191760084,281.3,282.2,96,0
HOEM,2/15/96,281.8541667,0.219048981,281.5,282.5,96,0